sat.trackr.live / text

‹ back to catalog

STARLINK-6181

NORAD 56888 · 2023-083N

PAYLOAD ACTIVE UNKNOWN

§ Identity

Operator
Country
US
Launch date
2023-06-12
Launch site
AFETR
Launch vehicle
Mass (kg)
RCS (m²)

Purposes: comms

External: N2YO · Heavens-Above · Gunter

§ Orbital elements

Epoch: 2026-09-20T21:39:50.254272Z

Period
94.27 min
Inclination
43.0059°
Eccentricity
0.0001518
Mean motion
15.27576463 rev/d
Perigee alt
482.0 km
Apogee alt
484.1 km
Semi-major
6,861.2 km
B*
-1.8122e-5
RAAN
66.3210°
Arg perigee
269.0343°
Mean anomaly
91.0335°
Rev number
18,144

§ Raw data

STARLINK-61811 56888U 23083N   26263.90266498 -.00000761  00000+0 -18122-4 0  99972 56888  43.0059  66.3210 0001518 269.0343  91.0335 15.27576463181443

JSON: /api/v1/satellites/56888 · /tle

For live sub-satellite position, see the globe view (requires WebGL).

§ Visibility from observer

Set your observer location to see the next 7 days of passes ≥ 10°. The values pass through the URL so the page stays shareable.

No JS? Fill the form by hand. The geolocation button needs JavaScript.